Lapse_Rate
9.2 9.2 6.1 6.5 6.1 5.9 5.9 6.3 6.4 6.5 6.8 6.6 6.4 6.6 6.2 6.2 6.2 6.2 6.2 6.1 6.0 6.3 6.6 6.8 6.5 6.3 6.5 7.1 6.6 6.5 6.4 6.3 6.4 6.2 6.2 6.2 6.4 6.3 6.0 6.0 7.3 7.3 5.9
8.8 9.4 6.1 6.6 6.1 6.0 6.1 5.9 5.7 6.0 6.3 6.4 6.6 6.5 6.3 6.3 6.3 6.4 6.6 6.6 6.6 6.7 7.2 7.6 7.2 6.8 6.8 7.2 6.6 6.5 6.6 6.8 6.3 5.9 5.7 6.1 6.1 6.2 6.3 6.4 8.6 6.7 6.2
9.7 9.2 8.2 6.2 6.3 6.1 6.0 6.0 5.9 5.8 6.2 6.4 6.5 6.6 6.7 6.4 6.3 6.4 6.7 6.9 6.9 6.9 7.2 7.0 6.8 6.8 6.8 6.3 6.1 5.9 6.2 6.5 6.1 5.7 6.6 9.5 8.3 6.1 6.0 5.8 6.2 6.2 6.4
9.7 9.4 9.4 6.0 6.3 6.2 6.1 5.9 6.0 6.0 6.0 6.2 6.4 6.5 6.6 6.5 6.5 6.2 6.6 6.8 7.0 7.2 7.2 7.2 6.8 6.8 6.5 6.2 5.9 5.6 5.7 5.8 6.1 6.2 9.3 9.6 9.3 6.5 6.5 6.3 6.4 6.2 7.0
9.7 9.1 7.2 4.9 5.8 6.2 6.2 6.1 6.1 6.4 6.2 6.1 6.1 6.4 6.5 6.7 6.4 6.0 6.5 6.6 6.9 7.3 7.1 6.8 6.4 6.0 5.9 5.7 5.7 5.6 5.3 5.1 5.4 7.1 9.6 9.5 9.3 6.9 6.7 6.7 6.6 6.5 6.8
9.9 9.4 6.2 4.5 4.8 5.5 6.1 6.1 6.2 6.3 6.5 6.3 6.1 6.1 6.4 6.8 6.8 6.6 6.4 6.6 7.2 7.1 6.9 6.7 6.4 5.8 5.6 5.6 5.7 5.6 5.3 4.7 5.3 9.6 9.3 7.9 7.1 6.6 6.0 6.1 6.3 6.2 6.1
9.6 8.2 7.8 4.3 4.3 5.1 5.7 6.3 6.2 6.3 6.4 6.5 6.3 6.5 6.6 6.7 6.8 7.1 7.3 6.8 6.9 6.8 6.6 6.6 6.3 6.0 5.7 5.8 5.8 5.5 4.9 4.6 8.6 9.5 8.7 6.8 7.2 6.0 5.8 5.6 5.7 5.8 5.8
9.1 7.7 7.5 5.9 4.1 4.0 5.1 6.0 6.4 6.5 6.4 6.3 6.5 6.4 6.6 6.6 6.7 6.8 7.0 6.8 6.6 6.5 6.2 6.3 6.1 6.0 6.0 6.1 5.8 5.2 4.3 4.8 7.9 8.6 7.3 7.0 6.3 6.3 5.7 5.3 5.5 5.5 5.3
7.7 7.5 7.8 7.6 7.0 4.9 4.0 4.1 4.9 6.2 6.6 6.6 6.3 6.5 6.5 6.5 6.5 6.6 6.8 6.6 6.2 6.2 5.6 5.4 5.7 6.0 6.0 6.3 5.8 4.9 4.7 5.7 8.4 6.2 6.6 7.6 6.4 6.6 6.1 5.5 5.5 5.5 5.2
7.4 7.6 7.8 7.3 7.1 7.4 7.2 4.2 3.4 3.8 5.4 6.6 6.6 6.3 6.5 6.5 6.5 6.6 6.6 6.6 6.3 6.4 5.8 5.5 5.3 5.8 6.0 6.1 5.6 4.9 4.9 6.0 8.4 7.9 7.1 6.4 6.7 6.5 6.2 5.6 5.5 5.4 5.6
7.3 7.1 6.9 7.2 7.3 7.2 7.0 6.3 4.0 3.8 3.8 5.3 6.5 6.4 6.5 8.1 8.4 7.8 7.3 7.5 6.3 6.3 6.6 5.8 5.4 5.6 5.7 5.6 5.4 5.1 5.6 9.4 9.1 7.5 7.5 6.4 6.8 6.6 6.3 5.8 5.6 5.7 5.7
7.5 7.6 6.9 6.7 6.6 6.6 6.6 7.0 6.9 6.5 6.8 8.1 8.9 8.7 8.4 9.4 9.4 9.0 8.1 6.6 6.3 6.2 6.7 6.5 6.0 5.5 5.7 8.6 6.5 4.9 8.7 9.6 9.6 9.3 8.3 6.3 6.7 7.0 6.7 6.6 6.6 6.1 6.4
7.3 6.8 6.4 6.2 6.0 6.1 6.6 6.8 7.3 6.9 7.0 7.1 7.7 9.2 8.8 8.5 8.8 8.7 7.7 6.5 7.0 6.3 7.0 6.6 6.6 6.2 7.5 9.6 9.5 9.0 9.6 9.6 9.6 9.5 8.9 6.4 6.8 7.2 6.8 6.9 7.1 6.6 6.8
6.2 6.3 6.3 5.9 5.9 5.9 5.7 6.1 6.7 7.0 7.1 7.2 6.8 7.1 7.7 7.7 7.6 7.9 8.3 8.9 7.2 7.9 7.3 6.9 7.6 7.0 8.0 9.6 9.6 9.7 9.7 9.7 9.6 9.6 8.8 6.4 6.4 7.2 6.9 7.0 7.0 6.9 6.8
5.9 6.4 6.3 5.9 5.7 5.6 5.4 5.8 5.8 6.2 6.8 7.2 6.8 6.7 5.3 4.9 6.6 7.5 7.7 8.1 7.7 7.7 7.3 6.9 7.3 7.4 7.5 9.4 9.6 9.7 9.8 9.7 9.7 9.6 9.5 6.3 6.2 6.8 6.7 6.8 6.6 6.5 6.5
6.4 6.0 6.1 5.8 5.5 5.2 5.2 5.3 5.7 5.6 6.0 6.5 6.7 6.5 6.5 6.3 5.4 6.0 5.9 6.6 6.6 6.8 7.5 6.7 6.9 6.9 6.7 7.9 9.9 9.7 9.7 9.7 9.6 9.6 8.3 7.2 6.2 6.6 6.7 6.9 6.3 6.4 6.4
6.8 6.0 5.5 5.5 5.4 5.3 5.3 5.3 5.4 5.0 5.3 6.5 6.8 6.5 6.6 6.2 5.3 4.9 5.9 5.6 5.7 5.9 6.3 6.1 5.7 5.8 5.8 7.1 8.7 9.9 9.6 9.6 9.6 9.5 8.2 7.9 6.8 6.5 7.1 7.1 6.6 6.6 6.1
5.6 5.5 5.3 5.0 5.1 5.4 5.2 5.1 5.5 5.2 5.5 6.2 6.3 6.6 6.3 5.7 4.6 4.6 5.5 5.6 5.4 5.4 5.2 5.1 5.1 4.5 4.8 6.3 7.8 9.7 9.9 9.7 9.6 9.5 9.0 8.0 7.7 7.6 6.8 6.9 6.8 6.3 6.4
6.1 5.3 5.0 5.2 5.3 5.3 5.3 5.1 5.3 5.3 5.7 5.8 5.5 5.9 6.4 6.2 5.4 4.5 6.0 7.5 4.1 4.5 4.7 4.5 4.4 4.7 4.2 5.0 5.6 8.8 9.7 9.6 9.7 9.4 9.1 7.7 8.4 8.3 7.6 6.6 7.1 6.6 6.3
5.6 4.8 4.5 4.7 4.9 5.0 4.7 4.9 4.5 4.9 5.4 5.1 5.5 5.5 5.9 6.2 6.3 5.7 6.0 7.0 7.1 5.6 4.9 4.3 4.6 4.4 4.6 5.0 6.2 6.9 7.4 8.7 9.3 9.0 9.4 7.2 7.9 8.1 8.4 6.5 6.4 7.2 6.5
4.8 4.8 4.9 4.6 5.5 4.7 3.5 3.8 3.4 2.7 3.0 3.5 4.9 5.1 5.4 5.8 6.2 6.8 7.4 7.4 7.6 7.2 7.0 4.9 4.6 4.7 4.4 5.7 4.2 3.8 4.4 6.4 8.7 7.8 9.0 7.4 7.3 7.1 6.7 7.5 6.9 7.4 6.8
5.6 5.1 5.0 5.3 5.2 4.9 4.4 5.1 5.2 5.3 4.8 5.9 5.8 5.7 6.3 6.3 5.8 6.2 6.9 7.2 7.4 7.6 7.4 6.6 5.2 4.6 4.6 4.7 5.7 4.9 4.1 3.6 6.5 7.0 6.5 7.8 7.6 6.9 7.1 6.0 5.8 6.7 7.0
5.1 5.4 5.3 5.4 5.5 5.4 4.1 4.2 4.3 4.0 4.1 5.0 5.8 6.1 6.2 5.9 5.8 4.5 6.0 6.8 7.4 7.5 7.9 8.1 6.4 5.6 5.3 4.6 5.1 5.8 4.6 5.8 4.7 4.9 5.3 6.8 6.6 6.0 6.9 6.7 6.9 6.5 6.3
5.6 5.3 5.4 5.8 5.9 5.9 4.7 3.8 3.9 4.3 5.0 6.8 7.2 6.9 6.6 5.6 5.5 5.5 4.5 6.3 7.2 8.4 8.8 8.3 7.5 6.1 5.7 5.1 5.3 6.1 4.6 4.2 6.3 4.6 3.2 6.0 6.1 6.1 7.3 7.1 6.8 7.1 6.9
5.4 5.6 5.9 6.1 6.0 6.5 6.3 5.2 4.2 4.6 6.5 6.9 6.8 6.3 6.8 6.8 6.5 6.3 5.5 4.5 6.2 7.9 8.9 9.1 8.9 7.1 6.1 6.8 5.4 5.6 5.5 4.5 4.8 4.1 5.4 4.3 5.3 5.9 7.3 8.0 7.4 7.3 8.0
5.3 5.8 6.2 6.2 6.2 6.3 6.5 6.4 5.0 4.8 5.5 6.0 5.9 5.5 6.3 7.2 6.1 6.3 7.0 5.8 5.2 6.0 8.2 8.5 8.4 7.8 7.4 6.7 6.9 4.9 6.0 5.5 5.8 6.1 5.8 3.9 5.9 6.7 6.7 7.2 7.1 7.2 8.5
Wind_Speed
5 7 5 10 8 8 8 8 7 8 11 14 16 16 16 16 15 15 14 14 13 13 14 12 14 14 14 14 14 14 15 14 14 14 14 14 15 16 14 12 16 17 17
4 7 6 7 8 8 7 7 7 6 9 14 16 17 17 18 17 15 14 15 14 13 11 13 12 14 15 15 14 12 11 13 13 14 14 13 12 13 11 6 13 16 16
7 7 9 4 6 7 7 7 8 7 6 11 15 15 16 17 17 16 14 14 14 13 13 14 14 15 14 15 13 12 10 13 13 12 10 12 13 10 10 7 13 13 13
7 7 6 5 4 5 6 8 8 10 9 9 12 16 15 17 18 16 15 14 13 13 13 12 15 14 14 12 12 12 12 12 13 12 8 10 13 12 12 12 12 10 12
6 4 5 1 0 2 5 6 8 8 10 11 11 12 15 16 16 16 15 14 14 13 14 14 15 15 14 14 12 11 12 11 10 7 8 9 12 13 14 17 16 18 16
5 4 5 4 5 5 4 6 7 9 9 11 11 12 14 15 15 15 16 15 15 13 14 15 15 16 15 14 13 12 11 10 11 7 7 8 12 12 12 12 14 15 15
4 3 3 6 9 6 6 6 8 9 11 11 12 13 14 16 16 17 17 15 15 15 14 16 16 16 16 16 13 12 11 12 9 8 10 13 14 13 12 11 12 13 13
3 1 1 4 7 7 5 7 8 10 10 11 12 13 13 14 15 15 16 16 15 16 17 17 17 17 17 17 15 13 11 13 10 10 12 11 14 13 11 10 9 11 12
3 2 3 4 5 3 3 4 6 10 12 12 13 14 14 13 13 14 15 16 16 19 18 17 16 16 16 17 16 16 14 14 12 12 7 11 11 11 10 9 9 11 11
4 5 6 5 5 6 6 2 4 6 11 14 14 15 14 14 14 15 15 17 18 21 18 17 17 16 15 14 16 17 18 13 10 13 11 7 10 9 10 9 10 10 10
5 6 6 7 7 7 7 5 5 5 6 11 15 16 16 16 16 16 16 17 20 21 22 19 18 17 14 13 14 18 19 13 13 8 8 11 10 10 10 10 10 11 11
8 6 6 6 7 7 7 7 6 5 6 8 13 15 17 17 17 16 16 19 22 22 24 23 21 17 18 15 12 15 16 12 12 11 10 12 10 10 11 10 11 12 12
8 6 5 5 5 6 6 7 7 5 5 6 9 13 15 15 15 15 14 14 17 23 20 21 19 16 19 16 15 17 16 14 12 11 9 12 10 11 10 11 14 14 12
8 8 5 4 4 5 5 6 7 6 5 5 7 7 10 11 11 13 12 15 15 15 17 20 16 19 17 17 17 17 15 14 12 11 12 13 12 13 14 13 14 14 13
9 7 6 5 4 3 4 5 6 6 6 5 6 7 8 5 6 11 11 13 13 16 16 14 15 15 14 17 17 17 16 16 14 12 10 16 13 14 17 17 12 14 16
9 8 6 5 4 4 4 5 5 7 7 7 5 5 7 9 6 5 5 7 9 15 16 15 12 11 9 13 13 18 17 16 15 13 11 14 12 15 17 18 16 11 15
7 5 5 4 4 5 5 5 5 7 7 6 6 5 6 7 6 6 6 6 7 12 15 13 12 13 9 9 13 15 16 17 15 15 13 11 13 15 19 17 19 15 13
8 7 4 3 4 4 4 4 4 6 7 6 6 6 6 6 4 7 5 4 9 11 9 6 8 6 8 9 9 11 11 15 16 16 14 13 13 14 16 16 18 19 15
9 6 4 3 4 4 4 4 5 6 6 7 7 7 7 7 7 6 3 8 3 4 6 8 7 10 8 10 9 9 10 10 11 15 15 14 14 15 15 16 18 17 18
8 5 4 4 4 4 3 3 3 4 5 6 7 8 9 9 10 8 6 6 8 6 4 5 10 10 9 7 6 8 8 9 9 9 11 12 13 16 16 14 14 15 15
7 6 5 4 5 3 3 4 4 4 5 6 6 10 9 10 11 11 8 9 8 9 9 7 4 12 5 11 6 2 2 5 10 9 12 10 10 16 15 18 14 12 15
6 5 6 6 5 5 4 4 4 3 5 7 6 9 11 11 11 11 10 10 11 9 12 10 10 3 5 12 8 9 2 2 6 8 6 7 10 11 16 12 13 11 13
5 5 5 5 5 6 7 4 4 3 5 6 6 6 8 11 13 12 12 11 11 11 10 11 11 11 6 6 9 5 4 3 4 4 6 8 9 5 13 15 16 14 13
4 4 4 5 5 6 7 6 8 6 7 7 6 5 7 10 12 15 13 12 13 11 13 12 10 10 9 10 9 7 2 5 5 3 1 5 7 6 9 12 14 14 15
3 3 4 4 4 6 7 8 7 10 8 7 7 9 9 10 12 13 13 10 13 11 13 14 14 14 10 12 9 9 6 2 4 3 5 4 4 5 6 9 13 12 16
2 1 4 4 5 6 8 9 11 12 11 9 9 8 8 8 8 12 13 12 11 11 15 14 16 17 14 13 12 9 11 7 8 6 4 5 9 9 6 7 9 10 16
Wind_Direction
114 138 153 159 151 139 133 135 127 133 150 160 156 153 155 149 146 145 142 142 145 149 145 141 134 135 132 125 122 120 122 122 118 114 113 108 111 109 110 127 126 107 107
105 135 136 154 162 158 154 151 145 133 147 162 163 160 154 151 153 150 149 149 148 140 142 142 139 132 129 124 124 121 121 121 110 108 107 106 108 115 115 85 91 108 112
123 124 146 140 165 165 179 172 160 159 159 168 170 171 162 163 158 158 160 158 157 149 137 140 135 131 129 124 122 116 111 127 115 120 158 131 121 119 115 109 109 119 119
119 125 119 119 128 169 192 203 190 177 171 179 184 166 170 171 167 166 169 166 161 155 145 141 136 132 129 126 126 126 117 122 125 147 152 129 122 124 111 119 114 141 123
113 111 108 89 194 185 203 201 204 204 190 185 188 181 179 177 171 171 176 176 168 163 150 144 140 138 139 139 140 138 132 131 141 192 136 139 133 123 112 107 106 102 107
119 108 87 359 284 232 204 211 218 210 210 201 201 195 194 189 183 181 178 183 174 166 158 151 149 146 145 146 146 147 145 143 171 162 154 130 120 111 105 107 110 112 111
117 99 98 24 7 248 221 207 220 225 224 220 209 206 208 200 196 190 184 183 170 157 163 161 162 160 158 155 149 148 153 166 192 170 145 144 129 129 126 122 124 124 125
158 166 316 342 360 359 276 235 219 223 229 228 225 217 214 207 202 200 195 186 174 163 167 171 173 171 170 166 153 150 154 173 196 147 144 129 135 135 132 131 138 140 141
197 239 255 290 313 300 327 308 260 242 228 225 223 224 220 214 207 203 196 186 178 175 171 172 174 176 180 177 160 151 156 176 154 137 127 135 143 140 140 141 153 153 152
248 243 246 256 275 284 298 314 314 280 248 231 225 222 219 223 219 211 204 198 194 189 175 178 177 178 178 175 165 158 158 161 159 148 141 139 154 152 151 154 159 157 159
254 237 236 242 248 259 276 290 286 261 267 244 230 223 220 224 216 216 209 204 202 201 182 182 179 177 173 171 171 168 166 184 160 157 158 167 164 166 162 160 158 161 153
250 238 231 237 245 251 256 263 270 279 264 246 228 229 219 222 223 216 213 212 206 208 193 183 181 176 176 184 181 180 194 190 186 179 174 174 178 180 175 183 159 165 158
255 260 238 228 235 243 249 253 254 255 257 250 251 243 233 233 227 215 217 215 213 212 204 185 179 180 199 193 187 192 204 194 192 192 168 182 191 187 192 188 164 168 173
239 249 236 222 233 241 252 247 249 251 247 246 239 250 252 237 229 227 225 212 214 217 208 192 187 191 205 202 200 200 200 199 201 196 172 188 210 193 179 164 166 177 179
247 244 235 227 242 250 244 247 243 239 238 243 246 241 235 266 251 239 231 225 217 212 203 189 193 193 199 202 205 208 201 202 205 196 187 191 210 193 178 157 158 183 179
238 242 234 233 243 253 250 241 235 235 235 235 234 238 243 235 239 244 240 235 227 215 207 195 195 191 195 196 203 206 205 204 206 194 192 192 196 192 181 156 141 139 152
234 239 232 249 244 239 243 243 229 223 224 227 228 231 236 238 258 260 237 222 224 212 205 194 196 199 180 197 205 206 205 205 201 197 187 186 186 196 184 174 150 146 145
242 230 230 234 243 253 247 235 219 217 220 222 223 225 227 225 227 258 240 256 214 207 201 199 186 185 195 189 192 207 208 205 201 195 191 187 192 185 191 192 162 150 145
229 240 258 264 264 255 244 228 225 220 222 222 222 227 228 227 220 229 260 231 207 220 202 192 192 187 187 191 180 202 204 209 203 195 191 196 196 193 183 186 177 164 156
222 232 262 276 276 261 233 219 221 225 225 224 228 229 231 234 233 227 246 256 227 237 191 221 192 200 179 192 185 183 181 206 200 197 192 194 193 190 182 164 161 168 163
216 226 236 259 267 225 206 208 232 226 222 230 234 232 236 240 242 245 247 241 239 242 235 198 219 181 174 169 123 51 9 232 195 196 195 186 197 177 168 167 165 171 162
214 235 251 260 252 223 213 232 230 230 225 230 224 235 242 246 247 246 242 243 240 235 236 224 193 205 180 174 175 154 176 91 225 195 187 193 193 178 173 167 155 163 151
210 230 255 269 254 216 199 212 236 245 261 245 230 235 236 239 240 243 249 243 243 238 233 222 217 194 189 189 180 165 147 177 152 179 195 206 186 187 182 174 177 167 155
204 237 261 270 258 220 193 203 213 225 240 248 252 253 259 242 244 239 242 248 241 238 236 231 209 202 191 194 193 205 65 122 181 156 74 224 191 204 192 183 185 174 165
201 258 264 264 257 236 222 215 224 233 247 253 254 263 266 264 258 250 239 233 243 240 237 233 221 206 198 195 200 183 176 178 124 149 162 171 199 211 205 197 185 180 186
119 255 261 265 267 253 243 239 238 242 244 246 250 257 262 264 258 251 248 227 227 242 241 236 232 214 202 206 197 187 193 189 178 170 147 163 189 198 205 200 185 194 193